CW4629 Weather Reports


Display with metric or nautical units.
time (UTC)temp
F
wind
direction
speed
MPH
gust
MPH
rain 1hr
in
rain 24hr
in
rain mn
in
humidity
%
barometer
mb
20260508140732 63 337 0.0 0.0 0.00 0.00 0.00 35 1017.4
20260508135730 62 337 0.0 0.0 0.00 0.00 0.00 40 1017.3
20260508134746 60 337 0.0 1.0 0.00 0.00 0.00 39 1017.2
20260508133749 59 22 0.0 0.0 0.00 0.00 0.00 41 1017.2
20260508131732 55 22 0.0 0.0 0.00 0.00 0.00 48 1016.8
20260508130830 53 22 0.0 0.0 0.00 0.00 0.00 47 1016.6
20260508125829 53 22 0.0 0.0 0.00 0.00 0.00 47 1016.4
20260508124831 54 22 0.0 0.0 0.00 0.00 0.00 43 1016.3
20260508123930 55 315 0.0 0.0 0.00 0.00 0.00 44 1016.1
20260508122848 55 22 0.0 0.0 0.00 0.00 0.00 41 1016.1
20260508121030 54 22 0.0 0.0 0.00 0.00 0.00 45 1016.1
20260508114149 56 90 0.0 0.0 0.00 0.00 0.00 37 1016.0
20260508113132 57 90 0.0 0.0 0.00 0.00 0.00 38 1015.9
20260508112230 57 90 0.0 0.0 0.00 0.00 0.00 34 1016.0
20260508111232 56 180 0.0 0.0 0.00 0.00 0.00 38 1015.9
20260508110231 56 180 0.0 0.0 0.00 0.00 0.00 41 1015.9
20260508110146 56 180 0.0 0.0 0.00 0.00 0.00 41 1015.7
20260508105146 57 180 0.0 0.0 0.00 0.00 0.00 38 1015.8
20260508104230 57 180 0.0 0.0 0.00 0.00 0.00 37 1015.9
20260508103232 58 167 0.0 0.0 0.00 0.00 0.00 35 1015.8
20260508102330 59 157 0.0 0.0 0.00 0.00 0.00 34 1015.7
20260508101331 60 157 0.0 0.0 0.00 0.00 0.00 32 1015.5
20260508095331 61 157 0.0 0.0 0.00 0.00 0.00 29 1015.6
20260508094331 62 157 0.0 0.0 0.00 0.00 0.00 28 1015.5
20260508093429 62 45 2.0 4.0 0.00 0.00 0.00 28 1015.4
20260508093329 61 45 2.0 2.0 0.00 0.00 0.00 29 1015.3
20260508092331 61 360 0.0 0.0 0.00 0.00 0.00 31 1015.4
20260508091331 62 22 0.0 0.0 0.00 0.00 0.00 29 1015.4
20260508090330 61 67 2.0 3.0 0.00 0.00 0.00 33 1015.2
20260508085346 61 202 0.0 0.0 0.00 0.00 0.00 33 1015.3
20260508084431 62 157 0.0 0.0 0.00 0.00 0.00 30 1015.4
20260508083529 63 94 0.0 0.0 0.00 0.00 0.00 30 1015.3
20260508083430 62 28 0.0 0.0 0.00 0.00 0.00 30 1015.4
20260508081431 63 360 0.0 0.0 0.00 0.00 0.00 29 1015.3
20260508080447 63 360 0.0 1.0 0.00 0.00 0.00 30 1015.4
20260508075430 64 360 0.0 0.0 0.00 0.00 0.00 31 1015.3
20260508074330 65 360 0.0 0.0 0.00 0.00 0.00 27 1015.3
20260508073331 65 22 0.0 0.0 0.00 0.00 0.00 27 1015.3
20260508072429 66 22 0.0 1.0 0.00 0.00 0.00 26 1015.2
20260508071445 66 22 0.0 0.0 0.00 0.00 0.00 26 1015.2
20260508070448 67 341 1.0 1.0 0.00 0.00 0.00 24 1015.2
20260508064628 68 337 1.0 2.0 0.00 0.00 0.00 22 1015.0
20260508062730 70 161 3.0 4.0 0.00 0.00 0.00 21 1014.7
20260508061747 70 52 1.0 2.0 0.00 0.00 0.00 20 1014.8
20260508055920 71 292 0.0 1.0 0.00 0.00 0.00 19 1014.7
20260508054920 70 292 2.0 2.0 0.00 0.00 0.00 21 1014.7
20260508053936 70 135 2.0 3.0 0.00 0.00 0.00 23 1014.7
20260508052936 70 135 0.0 1.0 0.00 0.00 0.00 21 1014.6
20260508052022 70 67 0.0 0.0 0.00 0.00 0.00 21 1014.6
20260508051021 71 45 0.0 0.0 0.00 0.00 0.00 21 1014.6
20260508050021 71 270 0.0 0.0 0.00 0.00 0.00 20 1014.6
20260508045035 72 270 0.0 0.0 0.00 0.00 0.00 20 1014.6
20260508044937 72 270 0.0 0.0 0.00 0.00 0.00 20 1014.5
20260508043920 73 315 0.0 0.0 0.00 0.00 0.00 20 1014.5
20260508043820 73 315 0.0 0.0 0.00 0.00 0.00 20 1014.4
20260508042837 72 315 1.0 2.0 0.00 0.00 0.00 19 1014.4
20260508041020 73 315 0.0 0.0 0.00 0.00 0.00 20 1014.3
20260508040921 73 315 0.0 1.0 0.00 0.00 0.00 20 1014.4
20260508035921 73 315 0.0 0.0 0.00 0.00 0.00 22 1014.2
20260508034922 73 315 0.0 2.0 0.00 0.00 0.00 22 1013.9
20260508033920 74 337 0.0 0.0 0.00 0.00 0.00 20 1014.0
20260508032919 75 360 0.0 0.0 0.00 0.00 0.00 19 1013.8
20260508031936 76 360 3.0 4.0 0.00 0.00 0.00 18 1013.7
20260508025920 77 39 1.0 3.0 0.00 0.00 0.00 19 1013.6
20260508024937 78 337 0.0 1.0 0.00 0.00 0.00 17 1013.5
20260508024021 80 292 1.0 3.0 0.00 0.00 0.00 15 1013.4
20260508023021 82 153 0.0 0.0 0.00 0.00 0.00 13 1013.2
20260508022019 84 202 0.0 0.0 0.00 0.00 0.00 12 1013.1
20260508021920 84 202 0.0 0.0 0.00 0.00 0.00 12 1013.0
20260508020918 85 202 0.0 0.0 0.00 0.00 0.00 11 1013.1
20260508020018 85 180 0.0 0.0 0.00 0.00 0.00 11 1013.1
20260508015019 85 199 3.0 6.0 0.00 0.00 0.00 10 1013.1
20260508014034 85 215 4.0 6.0 0.00 0.00 0.00 10 1013.1
20260508013119 84 213 5.0 8.0 0.00 0.00 0.00 10 1013.2
20260508012138 84 199 5.0 7.0 0.00 0.00 0.00 10 1013.1
20260508011121 85 201 3.0 6.0 0.00 0.00 0.00 10 1013.2
20260508010121 85 195 3.0 6.0 0.00 0.00 0.00 10 1013.3
20260508005135 85 197 6.0 8.0 0.00 0.00 0.00 10 1013.3
20260508004220 86 209 6.0 9.0 0.00 0.00 0.00 10 1013.4
20260508003221 86 243 4.0 6.0 0.00 0.00 0.00 10 1013.3
20260508002221 86 206 6.0 10.0 0.00 0.00 0.00 10 1013.3
20260508001221 87 258 8.0 14.0 0.00 0.00 0.00 10 1013.3
20260508000219 88 234 7.0 10.0 0.00 0.00 0.00 10 1013.5
20260508000122 88 239 7.0 12.0 0.00 0.00 0.00 10 1013.4
20260507235135 88 242 5.0 8.0 0.00 0.00 0.00 10 1013.5
20260507235035 88 242 8.0 11.0 0.00 0.00 0.00 10 1013.5
20260507234036 88 285 10.0 14.0 0.00 0.00 0.00 9 1013.4
20260507232119 88 226 3.0 6.0 0.00 0.00 0.00 10 1013.6
20260507232020 88 247 5.0 9.0 0.00 0.00 0.00 10 1013.6
20260507231018 87 280 6.0 9.0 0.00 0.00 0.00 10 1013.7
20260507225020 89 282 7.0 13.0 0.00 0.00 0.00 10 1013.9
20260507224035 91 268 8.0 10.0 0.00 0.00 0.00 9 1013.8
20260507223018 90 137 4.0 7.0 0.00 0.00 0.00 10 1014.1
20260507220039 91 151 3.0 5.0 0.00 0.00 0.00 8 1014.7
20260507215118 91 270 0.0 2.0 0.00 0.00 0.00 10 1014.9
20260507212234 88 146 0.0 2.0 0.00 0.00 0.00 10 1015.7
20260507211220 87 15 0.0 2.0 0.00 0.00 0.00 10 1016.0
20260507210234 87 182 2.0 7.0 0.00 0.00 0.00 11 1016.1
20260507205318 88 126 3.0 4.0 0.00 0.00 0.00 10 1016.3
20260507204334 88 270 1.0 3.0 0.00 0.00 0.00 9 1016.5
20260507203420 87 146 3.0 5.0 0.00 0.00 0.00 10 1016.7
20260507202435 85 247 0.0 3.0 0.00 0.00 0.00 11 1016.9
20260507201521 85 113 5.0 8.0 0.00 0.00 0.00 10 1017.1
20260507200534 85 154 4.0 5.0 0.00 0.00 0.00 12 1017.2
20260507194635 83 114 1.0 4.0 0.00 0.00 0.00 12 1017.7
20260507193618 84 45 3.0 5.0 0.00 0.00 0.00 12 1018.0
20260507192634 83 35 2.0 4.0 0.00 0.00 0.00 12 1018.2
20260507191717 82 50 3.0 5.0 0.00 0.00 0.00 11 1018.4
20260507190734 83 156 0.0 1.0 0.00 0.00 0.00 12 1018.6
20260507185819 82 180 3.0 5.0 0.00 0.00 0.00 12 1018.9
20260507183918 81 73 3.0 7.0 0.00 0.00 0.00 12 1019.2
20260507182921 79 16 3.0 6.0 0.00 0.00 0.00 13 1019.4
20260507181920 79 189 1.0 3.0 0.00 0.00 0.00 13 1019.6
20260507180934 79 173 3.0 4.0 0.00 0.00 0.00 13 1019.8
20260507175935 79 196 4.0 5.0 0.00 0.00 0.00 13 1019.9
20260507175818 79 190 5.0 6.0 0.00 0.00 0.00 13 1020.0
20260507174836 79 250 2.0 3.0 0.00 0.00 0.00 13 1020.2
20260507173921 77 247 0.0 0.0 0.00 0.00 0.00 14 1020.3
20260507172934 76 112 0.0 2.0 0.00 0.00 0.00 14 1020.4
20260507172020 77 111 2.0 4.0 0.00 0.00 0.00 14 1020.6
20260507171018 75 55 0.0 3.0 0.00 0.00 0.00 15 1020.7
20260507170018 74 112 3.0 5.0 0.00 0.00 0.00 16 1020.9
20260507165019 73 205 3.0 5.0 0.00 0.00 0.00 16 1021.0
20260507164034 73 117 3.0 5.0 0.00 0.00 0.00 18 1021.2
20260507163018 73 181 3.0 6.0 0.00 0.00 0.00 19 1021.4
20260507162937 73 156 3.0 5.0 0.00 0.00 0.00 19 1021.4
20260507162018 72 230 0.0 1.0 0.00 0.00 0.00 19 1021.4
20260507161035 72 202 1.0 3.0 0.00 0.00 0.00 19 1021.6
20260507160133 70 164 1.0 2.0 0.00 0.00 0.00 19 1021.7
20260507155135 69 180 0.0 2.0 0.00 0.00 0.00 21 1021.8
20260507155034 69 160 0.0 1.0 0.00 0.00 0.00 21 1021.8
20260507154119 68 180 2.0 4.0 0.00 0.00 0.00 22 1022.0
20260507153135 68 172 2.0 3.0 0.00 0.00 0.00 22 1022.0
20260507151236 67 180 0.0 0.0 0.00 0.00 0.00 20 1022.4
20260507150236 67 180 2.0 3.0 0.00 0.00 0.00 20 1022.3
20260507145318 66 135 0.0 0.0 0.00 0.00 0.00 22 1022.2
20260507144320 64 225 0.0 0.0 0.00 0.00 0.00 24 1022.3
20260507143417 62 225 0.0 0.0 0.00 0.00 0.00 25 1022.4
20260507142421 62 270 0.0 1.0 0.00 0.00 0.00 25 1022.4